Regional Weather Roundup
Issued by NWS

Home | Current Version | Previous Version | Graphics & Text | Print | Product List | Glossary On
Versions: 1 2 3 4 5 6 7 8 9 10 11 12 13 14 15 16 17 18 19 20 21 22 23 24 25 26 27 28 29 30 31 32 33 34 35 36 37 38 39 40 41 42 43 44 45 46 47 48 49 50
000
ASUS43 KMPX 262210
RWRMN
WEATHER ROUNDUP FOR MINNESOTA
NATIONAL WEATHER SERVICE TWIN CITIES/CHANHASSEN MN
500 PM CDT WED JUL 26 2017


NOTE: "FAIR" INDICATES FEW OR NO CLOUDS BELOW 12,000 FEET WITH NO
SIGNIFICANT WEATHER AND/OR OBSTRUCTIONS TO VISIBILITY. N/A MEANS
CURRENT SKY AND/OR WEATHER CONDITIONS ARE NOT AVAILABLE.

MNZ060>063-068>070-262300-
   Twin Cities Metro

CITY           SKY/WX    TMP DP  RH WIND       PRES   REMARKS
TWIN CITIES    FAIR      84  60  44 NW13      29.98F
ST PAUL        FAIR      83  61  47 N10       29.98S
CRYSTAL        FAIR      84  60  44 N12       29.97F
BLAINE         MOSUNNY   84  61  45 NW12G18   29.99S
LAKEVILLE      FAIR      81  64  57 NW8       29.99S
EDEN PRAIRIE   FAIR      83  60  45 N7        29.98S
SOUTH ST PAUL  FAIR      83  59  43 NW8       29.97F
LAKE ELMO      FAIR      81  63  54 N7        30.00S
$$
MNZ001>005-007-008-013>017-022>024-027-028-262300-
   Northwest Minnesota

CITY           SKY/WX    TMP DP  RH WIND       PRES   REMARKS
BEMIDJI        FAIR      78  57  48 NW9       30.04S
HALLOCK        FAIR      79  61  53 N13       30.04F
ROSEAU         FAIR      81  63  54 N9        30.03S
WARROAD        FAIR      81  63  54 NW9       30.02S
CROOKSTON      FAIR      79  61  53 N12       30.05S
FOSSTON        FAIR      81  61  50 NW10      30.06R
DETROIT LAKES  FAIR      77  61  57 NW12      30.07S
MOORHEAD       FAIR      81  59  47 N9        30.05S
PARK RAPIDS    PTSUNNY   81  58  45 N12       30.04R
MAHNOMEN       FAIR      79  61  53 NW9       30.05S
$$
MNZ006-009>011-018-025>026-262300-
   North Central Minnesota

CITY           SKY/WX    TMP DP  RH WIND       PRES   REMARKS
BAUDETTE       FAIR      80  58  46 NW9       30.01S
FLAG ISLAND    FAIR      79  55  44 N12       30.00S
INTL FALLS     FAIR      76  56  49 NW9       29.99S
WASKISH        PTSUNNY   81  59  47 N6        30.02S
BIG FORK       FAIR      79  55  44 NW6       30.01S
LONGVILLE      FAIR      79  59  50 W8        30.03S
GRAND RAPIDS   PTSUNNY   79  60  52 NW12      30.03S
CRANE LAKE     FAIR      73  57  56 NW5       30.00R
ORR            FAIR      77  57  50 NW3       29.98R
COOK             N/A     79  59  50 NW7       30.00R
WALKER         FAIR      77  59  53 N8        30.03S
$$
MNZ012-019>021-037-262300-
   Northeast Minnesota

CITY           SKY/WX    TMP DP  RH WIND       PRES   REMARKS
DULUTH         FAIR      80  60  50 W9        29.99S
ELY            FAIR      79  55  44 W9        29.98S
HIBBING        FAIR      78  59  51 W12       30.00R
EVELETH        FAIR      78  48  34 NW8       30.00S
DULUTH HARBOR  CLOUDY    84  63  48 NW7       29.96S
TWO HARBORS    FAIR      84  63  48 NW5       29.95S
SILVER BAY     FAIR      81  55  41 NW6       29.95S
GRAND MARAIS     N/A     65  60  84 W9        29.91S
G MARAIS ARPRT FAIR      75  54  46 W8        29.98S
$$
MNZ029>031-032-039>041-046>048-054>057-064-262300-
   West Central Minnesota

CITY           SKY/WX    TMP DP  RH WIND       PRES   REMARKS
FERGUS FALLS   PTSUNNY   79  63  57 N9        30.04S
WHEATON        FAIR      79  57  47 NW7       30.06F
MORRIS         FAIR      82  61  47 N9        30.04S
ALEXANDRIA     PTSUNNY   80  63  55 N10       30.06S
ELBOW LAKE     FAIR      78  62  57 N10       30.05F
WADENA         FAIR      81  59  47 NW8       30.04S
GLENWOOD       FAIR      81  61  50 NW8G17    30.06S
APPLETON       FAIR      82  57  42 NW10      30.03F
BENSON         FAIR      82  61  47 N8        30.05S
ORTONVILLE     FAIR      81  59  47 MISG      30.05F
MADISON        FAIR      84  61  45 N12       30.05S
WILLMAR        FAIR      82  63  51 NW12      30.04F
$$
MNZ033>034-036-042>043-049>051-058-059-262300-
   Central Minnesota

CITY           SKY/WX    TMP DP  RH WIND       PRES   REMARKS
ST CLOUD       FAIR      82  61  48 NW9       30.01S
SAUK CENTRE    FAIR      79  59  50 NW7G17    30.04S
PAYNESVILLE    FAIR      82  59  44 NW12      30.04S
AITKIN         FAIR      79  61  53 NW5       30.00S
PINE RIVER     PTSUNNY   81  61  50 NW9       30.05S
BRAINERD       FAIR      79  58  48 N7        30.02S
STAPLES        FAIR      81  57  44 N8        30.03S
LONG PRAIRIE   FAIR      79  61  53 W8        30.04F
LITTLE FALLS   PTSUNNY   81  55  41 NW8       30.02S
LITCHFIELD     FAIR      82  64  54 N10       30.02S
BUFFALO        FAIR      83  58  42 NW8       30.01S
MAPLE LAKE     FAIR      84  64  50 N7        30.02S
HUTCHINSON     FAIR      82  64  55 NW7       30.02F
$$
MNZ037-044-045-052-053-262300-
   East Central Minnesota

CITY           SKY/WX    TMP DP  RH WIND       PRES   REMARKS
PRINCETON      FAIR      84  61  45 NW8       30.01S
MORA           FAIR      79  57  47 NW8       30.02S
CAMBRIDGE      FAIR      82  63  51 NW5       29.99R
RUSH CITY      FAIR      81  60  48 NW7       30.00S
MOOSE LAKE     FAIR      79  61  53 NW6       29.98S
HINCKLEY       FAIR      81  63  54 NW5       29.99S
CLOQUET        FAIR      81  55  41 NW9       29.99S
MCGREGOR       FAIR      79  59  50 NW7       30.01S
$$
MNZ071>073-080-081-089-090-097-098-262300-
   Southwest Minnesota

CITY           SKY/WX    TMP DP  RH WIND       PRES   REMARKS
MONTEVIDEO     FAIR      84  64  51 N9        30.04S
GRANITE FALLS  FAIR      82  64  52 N10       30.05S
CANBY          FAIR      84  58  40 NE8       30.06F
MARSHALL       FAIR      79  61  53 N13       30.04F
REDWOOD FALLS  FAIR      82  59  45 N9        30.02S
OLIVIA         FAIR      81  61  50 N8        30.03S
PIPESTONE      FAIR      81  59  47 NE7       30.07S
WINDOM         FAIR      81  64  57 N12       30.03S
WORTHINGTON    FAIR      81  67  62 N13       30.04S
JACKSON        FAIR      81  66  61 CALM      30.03S
TRACY          FAIR      80  63  57 N10       30.05S
SLAYTON        HVY RAIN  78  60  54 N9        30.06S
$$
MNZ065>067-074>077-082>085-091>093-262300-
   South Central Minnesota

CITY           SKY/WX    TMP DP  RH WIND       PRES   REMARKS
MANKATO        FAIR      81  68  64 N12       30.00F
NEW ULM        FAIR      81  63  54 N8        30.01S
ST JAMES       FAIR      81  66  61 N8        30.01F
FAIRMONT       PTSUNNY   80  70  71 N10       30.00F
GLENCOE        FAIR      81  66  59 NW12      30.00F
FARIBAULT      FAIR      81  70  69 NW6       30.00S
OWATONNA       FAIR      81  70  69 W7        30.00S
WASECA         PTSUNNY   79  68  69 W6        30.01S
ALBERT LEA     FAIR      79  72  78 CALM      29.99S
$$
MNZ078>079-086>088-094>096-262300-
   Southeast Minnesota

CITY           SKY/WX    TMP DP  RH WIND       PRES   REMARKS
ROCHESTER      PTSUNNY   79  72  79 NE7       30.00S
RED WING       FAIR      81  70  69 N5        29.96F
STANTON        FAIR      82  68  62 NW7       29.97F
DODGE CENTER   FAIR      79  68  69 NW8       30.01R
WINONA         FAIR      79  72  78 NW6       29.97F
AUSTIN         FAIR      79  70  73 CALM      29.99F
PRESTON        FAIR      77  69  74 N6        30.00S
$$
ABBREVIATIONS USED IN REMARKS
   TC - TEMPERATURES IN CELSIUS
  WCI - WIND CHILL INDEX
   HX - HEAT INDEX
  VSB - VISIBILITY
$$



USA.gov is the U.S. government's official web portal to all federal, state and local government web resources and services.